Location: Althorst
(53.6379°N, 10.7715°E)
Time: 06:35:37
(UTC+00:00)

USA 229 - Pass Details

Date: 10 December 2019
Orbit: 994 x 1218 km, 63.4° (Epoch: 19 January)

Event Time Altitude Azimuth Distance (km) Brightness Sun altitude
Rises 17:56:28 0° 310° (NW) 3,899 7.3 -25.1°
Reaches altitude 10° 17:59:05 10° 312° (NW) 2,972 6.6 -25.5°
Maximum altitude 18:06:13 77° 38° (NE) 1,180 3.7 -26.6°
Enters shadow 18:07:55 56° 109° (ESE) 1,359 3.8 -26.8°
